Flag for Norway Weather past 2 weeks in Skien, Norway

48 °F

Passing clouds.

Feels Like: 42 °F
Forecast: 33 / 46 °F
Wind: 15 mph from Southwest

Location: Torp

Current Time: Nov 27, 2015 at 8:06:45 AM

Latest Report: Nov 27, 2015 at 7:20 AM

Visibility: N/A

Pressure: 29.50 "Hg

Humidity: 100%

Dew point: 48 °F

Location of SkienLocation

Historic Weather in Skien — Graph


Skien temperature yesterday

Maximum temperature yesterday: 45 °F (at 11:50 PM)
Minimum temperature yesterday: 25 °F (at 6:50 AM)
Average temperature yesterday: 32 °F

Past Weeks' High & Low Weather Summary

High50 °F (Nov 13, 5:50 AM)100% (Nov 12, 6:50 AM)29.95 "Hg (Nov 12, 6:50 AM)
Low14 °F (Nov 23, 12:50 AM)64% (Nov 22, 4:20 PM)29.15 "Hg (Nov 18, 1:50 AM)
Average35 °F93%29.54 "Hg
* Reported Nov 12 6:50 AM — Nov 27 6:50 AM, Skien, Weather by CustomWeather, © 2015

Note: Actual official high and low records may vary slightly from our data, if they occured in-between our weather recording intervals... More about our weather records


Skien weather history for previous 24 hours

Time TempWeatherWind HumidityBarometerVisibility
6:50 AM
Fri, Nov 27
48 °FPassing clouds.14 mph100%29.50 "HgN/A
6:20 AM48 °FPassing clouds.16 mph100%29.53 "HgN/A
5:50 AM48 °FPassing clouds.18 mph100%29.53 "HgN/A
4:50 AM48 °FLow clouds.20 mph100%29.53 "HgN/A
4:20 AM48 °FLow clouds.21 mph100%29.56 "HgN/A
3:50 AM46 °FLow clouds.20 mph100%29.56 "HgN/A
3:20 AM46 °FLow clouds.18 mph100%29.56 "HgN/A
2:50 AM46 °FMostly cloudy.21 mph100%29.59 "HgN/A
2:20 AM46 °FLow clouds.21 mph100%29.59 "HgN/A
1:50 AM46 °FMostly cloudy.22 mph100%29.59 "HgN/A
1:20 AM45 °FPassing clouds.18 mph100%29.59 "HgN/A
12:50 AM45 °FPassing clouds.16 mph100%29.62 "HgN/A
12:20 AM45 °FPassing clouds.21 mph93%29.62 "HgN/A
11:50 PM
Thu, Nov 26
45 °FPassing clouds.20 mph93%29.62 "HgN/A
10:50 PM43 °FClear.23 mph93%29.65 "Hg10 mi
10:20 PM41 °FClear.10 mph93%29.65 "Hg10 mi
9:50 PM41 °FClear.12 mph93%29.65 "Hg10 mi
9:20 PM41 °FClear.14 mph93%29.68 "Hg10 mi
8:50 PM39 °FClear.15 mph93%29.68 "Hg10 mi
8:20 PM39 °FClear.15 mph87%29.68 "Hg10 mi
7:50 PM37 °FClear.14 mph93%29.68 "Hg10 mi
7:20 PM37 °FClear.12 mph87%29.71 "Hg10 mi
6:50 PM36 °FClear.9 mph87%29.71 "Hg10 mi
6:20 PM36 °FClear.10 mph81%29.71 "Hg10 mi
5:50 PM36 °FClear.9 mph81%29.74 "Hg10 mi
5:20 PM34 °FClear.8 mph93%29.74 "Hg10 mi
4:50 PM36 °FClear.12 mph81%29.74 "Hg10 mi
4:20 PM36 °FClear.10 mph87%29.74 "Hg10 mi
3:50 PM34 °FClear.8 mph93%29.74 "Hg10 mi
3:20 PM34 °FSunny.9 mph93%29.77 "Hg10 mi
2:50 PM34 °FSunny.7 mph93%29.77 "Hg10 mi
2:20 PM34 °FSunny.9 mph93%29.77 "Hg10 mi
1:50 PM34 °FSunny.7 mph93%29.77 "Hg10 mi
1:20 PM32 °FSunny.6 mph100%29.77 "Hg10 mi
12:50 PM32 °FSunny.6 mph100%29.80 "Hg10 mi
12:20 PM32 °FSunny.5 mph100%29.80 "Hg10 mi
11:50 AM30 °FSunny.3 mph100%29.80 "Hg10 mi
11:20 AM30 °FSunny.2 mph100%29.80 "Hg10 mi
10:50 AM30 °FSunny.2 mph100%29.80 "Hg10 mi
10:20 AM28 °FSunny.3 mph100%29.77 "Hg10 mi
9:50 AM27 °FPassing clouds.3 mph100%29.77 "HgN/A
9:20 AM27 °FSunny.1 mph100%29.77 "Hg10 mi
8:50 AM25 °FSunny.1 mph100%29.77 "Hg10 mi
8:20 AM25 °FClear.2 mph100%29.74 "Hg10 mi
Weather by CustomWeather, © 2015

See weather overviewHow to use our weather pages